Time,TemperatureF,DewpointF,PressureIn,WindDirection,WindDirectionDegrees,WindSpeedMPH,WindSpeedGustMPH,Humidity,HourlyPrecipIn,Conditions,Clouds,dailyrainin,SoftwareType,DateUTC
2013-05-03 00:03:00,40.0,37.0,30.76,ESE,120,0.0,0.0,90,0.00,,,0.00,,2013-05-03 04:03:00,
2013-05-03 00:13:00,40.0,37.0,30.76,ESE,120,0.0,0.0,90,0.00,,,0.00,,2013-05-03 04:13:00,
2013-05-03 00:23:00,40.0,38.0,30.76,ESE,120,0.0,0.0,91,0.00,,,0.00,,2013-05-03 04:23:00,
2013-05-03 00:32:00,40.0,38.0,30.76,ESE,120,0.0,0.0,91,0.00,,,0.00,,2013-05-03 04:32:00,
2013-05-03 00:43:00,40.0,38.0,30.76,ESE,120,0.0,0.0,91,0.00,,,0.00,,2013-05-03 04:43:00,
2013-05-03 00:53:00,40.0,38.0,30.76,ESE,121,0.0,0.0,91,0.00,,,0.00,,2013-05-03 04:53:00,
2013-05-03 01:02:00,40.0,38.0,30.76,ESE,121,0.0,0.0,92,0.00,,,0.00,,2013-05-03 05:02:00,
2013-05-03 01:12:00,40.0,38.0,30.76,ESE,121,0.0,0.0,92,0.00,,,0.00,,2013-05-03 05:12:00,
2013-05-03 01:22:00,40.0,38.0,30.76,ESE,121,0.0,0.0,92,0.00,,,0.00,,2013-05-03 05:22:00,
2013-05-03 01:32:00,39.0,37.0,30.75,ESE,122,0.0,0.0,92,0.00,,,0.00,,2013-05-03 05:32:00,
2013-05-03 01:42:00,39.0,37.0,30.75,ESE,122,0.0,0.0,92,0.00,,,0.00,,2013-05-03 05:42:00,
2013-05-03 01:52:00,40.0,38.0,30.75,ESE,121,0.0,0.0,92,0.00,,,0.00,,2013-05-03 05:52:00,
2013-05-03 02:02:00,40.0,38.0,30.75,ESE,121,0.0,0.0,91,0.00,,,0.00,,2013-05-03 06:02:00,
2013-05-03 02:12:00,40.0,38.0,30.75,ESE,121,0.0,0.0,91,0.00,,,0.00,,2013-05-03 06:12:00,
2013-05-03 02:21:00,39.0,37.0,30.75,ESE,121,0.0,0.0,91,0.00,,,0.00,,2013-05-03 06:21:00,
2013-05-03 02:32:00,40.0,38.0,30.74,ESE,120,0.0,1.0,92,0.00,,,0.00,,2013-05-03 06:32:00,
2013-05-03 02:42:00,40.0,38.0,30.74,ESE,120,0.0,1.0,92,0.00,,,0.00,,2013-05-03 06:42:00,
2013-05-03 02:52:00,39.0,37.0,30.74,South,183,0.0,0.0,91,0.00,,,0.00,,2013-05-03 06:52:00,
2013-05-03 03:01:00,39.0,37.0,30.74,SSW,212,0.0,1.0,91,0.00,,,0.00,,2013-05-03 07:01:00,
2013-05-03 03:11:00,39.0,37.0,30.74,SSW,212,0.0,1.0,91,0.00,,,0.00,,2013-05-03 07:11:00,
2013-05-03 03:22:00,39.0,37.0,30.74,SSW,212,0.0,0.0,91,0.00,,,0.00,,2013-05-03 07:22:00,
2013-05-03 03:32:00,39.0,37.0,30.74,ESE,118,0.0,1.0,92,0.00,,,0.00,,2013-05-03 07:32:00,
2013-05-03 03:42:00,39.0,37.0,30.74,ESE,118,0.0,1.0,92,0.00,,,0.00,,2013-05-03 07:42:00,
2013-05-03 03:52:00,39.0,37.0,30.75,WSW,249,0.0,1.0,91,0.00,,,0.00,,2013-05-03 07:52:00,
2013-05-03 04:02:00,39.0,37.0,30.75,WSW,249,0.0,0.0,92,0.00,,,0.00,,2013-05-03 08:02:00,
2013-05-03 04:12:00,39.0,37.0,30.75,WSW,249,0.0,0.0,92,0.00,,,0.00,,2013-05-03 08:12:00,
2013-05-03 04:21:00,38.0,36.0,30.75,WSW,248,0.0,0.0,92,0.00,,,0.00,,2013-05-03 08:21:00,
2013-05-03 04:32:00,38.0,36.0,30.76,WSW,248,0.0,1.0,93,0.00,,,0.00,,2013-05-03 08:32:00,
2013-05-03 04:42:00,38.0,36.0,30.76,WSW,248,0.0,1.0,93,0.00,,,0.00,,2013-05-03 08:42:00,
2013-05-03 04:53:00,38.0,36.0,30.76,WSW,249,0.0,0.0,93,0.00,,,0.00,,2013-05-03 08:53:00,
2013-05-03 05:01:00,39.0,37.0,30.76,WSW,249,0.0,1.0,94,0.00,,,0.00,,2013-05-03 09:01:00,
2013-05-03 05:12:00,39.0,37.0,30.76,WSW,249,0.0,1.0,94,0.00,,,0.00,,2013-05-03 09:12:00,
2013-05-03 05:21:00,39.0,37.0,30.77,WNW,302,0.0,0.0,94,0.00,,,0.00,,2013-05-03 09:21:00,
2013-05-03 05:32:00,39.0,37.0,30.77,WNW,302,0.0,1.0,94,0.00,,,0.00,,2013-05-03 09:32:00,
2013-05-03 05:42:00,39.0,37.0,30.77,WNW,302,0.0,1.0,94,0.00,,,0.00,,2013-05-03 09:42:00,
2013-05-03 05:53:00,39.0,37.0,30.77,WNW,302,0.0,0.0,93,0.00,,,0.00,,2013-05-03 09:53:00,
2013-05-03 06:03:00,38.0,36.0,30.78,WNW,302,0.0,1.0,94,0.00,,,0.00,,2013-05-03 10:03:00,
2013-05-03 06:12:00,38.0,36.0,30.78,WNW,302,0.0,1.0,94,0.00,,,0.00,,2013-05-03 10:12:00,
2013-05-03 06:22:00,39.0,38.0,30.78,ENE,60,0.0,1.0,95,0.00,,,0.00,,2013-05-03 10:22:00,
2013-05-03 06:32:00,39.0,38.0,30.79,ENE,60,0.0,1.0,95,0.00,,,0.00,,2013-05-03 10:32:00,
2013-05-03 06:42:00,39.0,38.0,30.79,ENE,60,0.0,1.0,95,0.00,,,0.00,,2013-05-03 10:42:00,
2013-05-03 06:52:00,39.0,38.0,30.79,ENE,77,0.0,1.0,95,0.00,,,0.00,,2013-05-03 10:52:00,
2013-05-03 07:02:00,40.0,39.0,30.79,ENE,77,0.0,0.0,95,0.00,,,0.00,,2013-05-03 11:02:00,
2013-05-03 07:11:00,40.0,39.0,30.79,ENE,77,0.0,0.0,95,0.00,,,0.00,,2013-05-03 11:11:00,
2013-05-03 07:22:00,42.0,40.0,30.79,NE,48,0.0,1.0,94,0.00,,,0.00,,2013-05-03 11:22:00,
2013-05-03 07:32:00,43.0,41.0,30.80,NNE,32,0.0,3.0,92,0.00,,,0.00,,2013-05-03 11:32:00,
2013-05-03 07:42:00,43.0,41.0,30.80,NNE,32,0.0,3.0,92,0.00,,,0.00,,2013-05-03 11:42:00,
2013-05-03 07:52:00,44.0,41.0,30.80,ENE,77,0.0,3.0,89,0.00,,,0.00,,2013-05-03 11:52:00,
2013-05-03 08:02:00,45.0,42.0,30.80,East,91,1.0,3.0,88,0.00,,,0.00,,2013-05-03 12:02:00,
2013-05-03 08:12:00,45.0,42.0,30.80,East,91,1.0,3.0,88,0.00,,,0.00,,2013-05-03 12:12:00,
2013-05-03 08:21:00,47.0,42.0,30.80,East,101,1.0,5.0,84,0.00,,,0.00,,2013-05-03 12:21:00,
2013-05-03 08:32:00,48.0,43.0,30.80,NE,51,1.0,3.0,82,0.00,,,0.00,,2013-05-03 12:32:00,
2013-05-03 08:42:00,48.0,43.0,30.80,NE,51,1.0,3.0,82,0.00,,,0.00,,2013-05-03 12:42:00,
2013-05-03 08:52:00,49.0,43.0,30.80,East,97,1.0,7.0,79,0.00,,,0.00,,2013-05-03 12:52:00,
2013-05-03 09:01:00,50.0,43.0,30.80,NE,52,1.0,3.0,77,0.00,,,0.00,,2013-05-03 13:01:00,
2013-05-03 09:11:00,50.0,43.0,30.80,NE,52,1.0,3.0,77,0.00,,,0.00,,2013-05-03 13:11:00,
2013-05-03 09:22:00,52.0,43.0,30.80,ENE,72,1.0,5.0,72,0.00,,,0.00,,2013-05-03 13:22:00,
2013-05-03 09:32:00,52.0,42.0,30.80,SW,231,2.0,5.0,69,0.00,,,0.00,,2013-05-03 13:32:00,
2013-05-03 09:42:00,52.0,42.0,30.80,SW,231,2.0,5.0,69,0.00,,,0.00,,2013-05-03 13:42:00,
2013-05-03 09:52:00,52.0,41.0,30.80,ENE,67,3.0,6.0,67,0.00,,,0.00,,2013-05-03 13:52:00,
2013-05-03 10:02:00,52.0,42.0,30.79,NE,56,1.0,9.0,68,0.00,,,0.00,,2013-05-03 14:02:00,
2013-05-03 10:11:00,52.0,42.0,30.79,NE,56,1.0,9.0,68,0.00,,,0.00,,2013-05-03 14:11:00,
2013-05-03 10:22:00,55.0,43.0,30.79,East,89,1.0,5.0,65,0.00,,,0.00,,2013-05-03 14:22:00,
2013-05-03 10:32:00,56.0,44.0,30.79,ENE,65,2.0,6.0,65,0.00,,,0.00,,2013-05-03 14:32:00,
2013-05-03 10:42:00,56.0,44.0,30.79,ENE,65,2.0,6.0,65,0.00,,,0.00,,2013-05-03 14:42:00,
2013-05-03 10:52:00,55.0,44.0,30.79,East,84,2.0,7.0,66,0.00,,,0.00,,2013-05-03 14:52:00,
2013-05-03 11:01:00,55.0,44.0,30.79,ENE,75,2.0,5.0,66,0.00,,,0.00,,2013-05-03 15:01:00,
2013-05-03 11:11:00,55.0,44.0,30.79,ENE,75,2.0,5.0,66,0.00,,,0.00,,2013-05-03 15:11:00,
2013-05-03 11:22:00,55.0,43.0,30.79,NE,46,3.0,7.0,65,0.00,,,0.00,,2013-05-03 15:22:00,
2013-05-03 11:32:00,56.0,45.0,30.79,WSW,240,2.0,9.0,67,0.00,,,0.00,,2013-05-03 15:32:00,
2013-05-03 11:43:00,56.0,45.0,30.79,WSW,240,2.0,9.0,67,0.00,,,0.00,,2013-05-03 15:43:00,
2013-05-03 11:53:00,56.0,44.0,30.78,SSE,165,2.0,5.0,63,0.00,,,0.00,,2013-05-03 15:53:00,
2013-05-03 12:03:00,56.0,44.0,30.78,East,88,2.0,6.0,64,0.00,,,0.00,,2013-05-03 16:03:00,
2013-05-03 12:13:00,56.0,44.0,30.78,East,88,2.0,6.0,64,0.00,,,0.00,,2013-05-03 16:13:00,
2013-05-03 12:23:00,56.0,45.0,30.77,North,11,3.0,8.0,67,0.00,,,0.00,,2013-05-03 16:23:00,
2013-05-03 12:33:00,56.0,44.0,30.77,NNE,33,2.0,10.0,64,0.00,,,0.00,,2013-05-03 16:33:00,
2013-05-03 12:42:00,56.0,44.0,30.77,NNE,33,2.0,10.0,64,0.00,,,0.00,,2013-05-03 16:42:00,
2013-05-03 12:52:00,56.0,44.0,30.76,East,92,1.0,8.0,64,0.00,,,0.00,,2013-05-03 16:52:00,
2013-05-03 13:02:00,56.0,44.0,30.76,East,92,1.0,8.0,64,0.00,,,0.00,,2013-05-03 17:02:00,
2013-05-03 13:12:00,56.0,44.0,30.76,East,92,1.0,8.0,64,0.00,,,0.00,,2013-05-03 17:12:00,
2013-05-03 13:23:00,57.0,45.0,30.75,NNW,342,2.0,8.0,63,0.00,,,0.00,,2013-05-03 17:23:00,
2013-05-03 13:32:00,57.0,44.0,30.75,NE,53,3.0,7.0,61,0.00,,,0.00,,2013-05-03 17:32:00,
2013-05-03 13:42:00,57.0,44.0,30.75,NE,53,3.0,7.0,61,0.00,,,0.00,,2013-05-03 17:42:00,
2013-05-03 13:52:00,58.0,44.0,30.74,ENE,76,3.0,7.0,60,0.00,,,0.00,,2013-05-03 17:52:00,
2013-05-03 14:01:00,58.0,43.0,30.74,ENE,58,4.0,7.0,58,0.00,,,0.00,,2013-05-03 18:01:00,
2013-05-03 14:12:00,58.0,43.0,30.74,ENE,58,4.0,7.0,58,0.00,,,0.00,,2013-05-03 18:12:00,
2013-05-03 14:22:00,58.0,45.0,30.73,North,359,3.0,9.0,61,0.00,,,0.00,,2013-05-03 18:22:00,
2013-05-03 14:32:00,59.0,45.0,30.73,ENE,68,2.0,9.0,60,0.00,,,0.00,,2013-05-03 18:32:00,
2013-05-03 14:42:00,59.0,45.0,30.73,ENE,68,2.0,9.0,60,0.00,,,0.00,,2013-05-03 18:42:00,
2013-05-03 14:52:00,60.0,45.0,30.73,ENE,58,3.0,10.0,57,0.00,,,0.00,,2013-05-03 18:52:00,
2013-05-03 15:01:00,59.0,45.0,30.72,West,269,2.0,14.0,60,0.00,,,0.00,,2013-05-03 19:01:00,
2013-05-03 15:11:00,59.0,45.0,30.72,West,269,2.0,14.0,60,0.00,,,0.00,,2013-05-03 19:11:00,
2013-05-03 15:21:00,59.0,45.0,30.71,East,85,2.0,10.0,59,0.00,,,0.00,,2013-05-03 19:21:00,
2013-05-03 15:32:00,60.0,46.0,30.71,East,91,1.0,6.0,60,0.00,,,0.00,,2013-05-03 19:32:00,
2013-05-03 15:42:00,60.0,46.0,30.71,East,91,1.0,6.0,60,0.00,,,0.00,,2013-05-03 19:42:00,
2013-05-03 15:52:00,60.0,45.0,30.71,ESE,123,3.0,7.0,58,0.00,,,0.00,,2013-05-03 19:52:00,
2013-05-03 16:02:00,60.0,46.0,30.70,East,79,1.0,5.0,60,0.00,,,0.00,,2013-05-03 20:02:00,
2013-05-03 16:12:00,60.0,46.0,30.70,East,79,1.0,5.0,60,0.00,,,0.00,,2013-05-03 20:12:00,
2013-05-03 16:21:00,58.0,45.0,30.70,NE,50,2.0,8.0,62,0.00,,,0.00,,2013-05-03 20:21:00,
2013-05-03 16:32:00,58.0,45.0,30.70,NNE,30,3.0,5.0,62,0.00,,,0.00,,2013-05-03 20:32:00,
2013-05-03 16:42:00,58.0,45.0,30.70,NNE,30,3.0,5.0,62,0.00,,,0.00,,2013-05-03 20:42:00,
2013-05-03 16:52:00,57.0,45.0,30.69,ESE,110,2.0,8.0,64,0.00,,,0.00,,2013-05-03 20:52:00,
2013-05-03 17:01:00,57.0,45.0,30.69,NE,41,2.0,5.0,64,0.00,,,0.00,,2013-05-03 21:01:00,
2013-05-03 17:11:00,57.0,45.0,30.69,NE,41,2.0,5.0,64,0.00,,,0.00,,2013-05-03 21:11:00,
2013-05-03 17:22:00,57.0,45.0,30.69,WNW,288,1.0,7.0,63,0.00,,,0.00,,2013-05-03 21:22:00,
2013-05-03 17:33:00,57.0,44.0,30.68,ENE,72,2.0,7.0,62,0.00,,,0.00,,2013-05-03 21:33:00,
2013-05-03 17:42:00,57.0,44.0,30.68,ENE,72,2.0,7.0,62,0.00,,,0.00,,2013-05-03 21:42:00,
2013-05-03 17:53:00,57.0,43.0,30.68,NNE,19,1.0,5.0,60,0.00,,,0.00,,2013-05-03 21:53:00,
2013-05-03 18:03:00,56.0,44.0,30.68,ENE,70,1.0,3.0,63,0.00,,,0.00,,2013-05-03 22:03:00,
2013-05-03 18:13:00,56.0,44.0,30.68,ENE,70,1.0,3.0,63,0.00,,,0.00,,2013-05-03 22:13:00,
2013-05-03 18:22:00,55.0,43.0,30.68,ESE,120,0.0,5.0,63,0.00,,,0.00,,2013-05-03 22:22:00,
2013-05-03 18:32:00,55.0,43.0,30.68,SE,145,2.0,6.0,64,0.00,,,0.00,,2013-05-03 22:32:00,
2013-05-03 18:42:00,55.0,43.0,30.68,SE,145,2.0,6.0,64,0.00,,,0.00,,2013-05-03 22:42:00,
2013-05-03 18:52:00,54.0,43.0,30.68,ENE,63,0.0,2.0,65,0.00,,,0.00,,2013-05-03 22:52:00,
2013-05-03 19:02:00,54.0,42.0,30.68,SW,235,0.0,3.0,64,0.00,,,0.00,,2013-05-03 23:02:00,
2013-05-03 19:11:00,54.0,42.0,30.68,SW,235,0.0,3.0,64,0.00,,,0.00,,2013-05-03 23:11:00,
2013-05-03 19:22:00,53.0,42.0,30.68,WNW,294,0.0,1.0,66,0.00,,,0.00,,2013-05-03 23:22:00,
2013-05-03 19:32:00,52.0,41.0,30.68,NW,321,0.0,0.0,67,0.00,,,0.00,,2013-05-03 23:32:00,
2013-05-03 19:41:00,52.0,41.0,30.68,NW,321,0.0,0.0,67,0.00,,,0.00,,2013-05-03 23:41:00,
2013-05-03 19:52:00,51.0,42.0,30.67,East,82,0.0,0.0,70,0.00,,,0.00,,2013-05-03 23:52:00,
2013-05-03 20:01:00,51.0,42.0,30.67,East,82,0.0,0.0,71,0.00,,,0.00,,2013-05-04 00:01:00,
2013-05-03 20:11:00,51.0,42.0,30.67,East,82,0.0,0.0,71,0.00,,,0.00,,2013-05-04 00:11:00,
2013-05-03 20:23:00,49.0,41.0,30.67,East,82,0.0,0.0,75,0.00,,,0.00,,2013-05-04 00:23:00,
2013-05-03 20:32:00,49.0,42.0,30.67,East,82,0.0,0.0,77,0.00,,,0.00,,2013-05-04 00:32:00,
2013-05-03 20:42:00,49.0,42.0,30.67,East,82,0.0,0.0,77,0.00,,,0.00,,2013-05-04 00:42:00,
2013-05-03 20:52:00,48.0,41.0,30.67,East,82,0.0,0.0,78,0.00,,,0.00,,2013-05-04 00:52:00,
2013-05-03 21:01:00,48.0,42.0,30.67,East,82,0.0,0.0,79,0.00,,,0.00,,2013-05-04 01:01:00,
2013-05-03 21:11:00,48.0,42.0,30.67,East,82,0.0,0.0,79,0.00,,,0.00,,2013-05-04 01:11:00,
2013-05-03 21:21:00,47.0,41.0,30.67,East,82,0.0,0.0,81,0.00,,,0.00,,2013-05-04 01:21:00,
2013-05-03 21:32:00,46.0,41.0,30.67,East,82,0.0,0.0,81,0.00,,,0.00,,2013-05-04 01:32:00,
2013-05-03 21:42:00,46.0,41.0,30.67,East,82,0.0,0.0,81,0.00,,,0.00,,2013-05-04 01:42:00,
2013-05-03 21:52:00,46.0,41.0,30.67,East,82,0.0,0.0,84,0.00,,,0.00,,2013-05-04 01:52:00,
2013-05-03 22:02:00,45.0,41.0,30.67,East,82,0.0,0.0,85,0.00,,,0.00,,2013-05-04 02:02:00,
2013-05-03 22:11:00,45.0,41.0,30.67,East,82,0.0,0.0,85,0.00,,,0.00,,2013-05-04 02:11:00,
2013-05-03 22:21:00,45.0,41.0,30.67,East,82,0.0,0.0,86,0.00,,,0.00,,2013-05-04 02:21:00,
2013-05-03 22:32:00,45.0,41.0,30.67,East,82,0.0,0.0,87,0.00,,,0.00,,2013-05-04 02:32:00,
2013-05-03 22:42:00,45.0,41.0,30.67,East,82,0.0,0.0,87,0.00,,,0.00,,2013-05-04 02:42:00,
2013-05-03 22:52:00,43.0,40.0,30.67,East,82,0.0,0.0,88,0.00,,,0.00,,2013-05-04 02:52:00,
2013-05-03 23:02:00,43.0,40.0,30.66,East,82,0.0,0.0,89,0.00,,,0.00,,2013-05-04 03:02:00,
2013-05-03 23:11:00,43.0,40.0,30.66,East,82,0.0,0.0,89,0.00,,,0.00,,2013-05-04 03:11:00,
2013-05-03 23:22:00,42.0,39.0,30.66,East,82,0.0,0.0,90,0.00,,,0.00,,2013-05-04 03:22:00,
2013-05-03 23:33:00,42.0,40.0,30.66,East,82,0.0,0.0,91,0.00,,,0.00,,2013-05-04 03:33:00,
2013-05-03 23:43:00,42.0,40.0,30.66,East,82,0.0,0.0,91,0.00,,,0.00,,2013-05-04 03:43:00,
2013-05-03 23:53:00,41.0,39.0,30.65,East,82,0.0,0.0,92,0.00,,,0.00,,2013-05-04 03:53:00,